Regional Weather Roundup
Issued by NWS

Home | Current Version | Previous Version | Graphics & Text | Print | Product List | Glossary Off
Versions: 1 2 3 4 5 6 7 8 9 10 11 12 13 14 15 16 17 18 19 20 21 22 23 24 25 26 27 28 29 30 31 32 33 34 35 36 37 38 39 40 41 42 43 44 45 46 47 48 49 50

886
ASUS43 KTOP 201159
RWRKS

WEATHER ROUNDUP FOR KANSAS
NATIONAL WEATHER SERVICE GOODLAND KS
600 AM CST SAT JAN 20 2018

NOTE:  "FAIR" INDICATES FEW OR NO CLOUDS BELOW 12,000 FEET WITH NO
SIGNIFICANT WEATHER AND/OR OBSTRUCTIONS TO VISIBILITY.

KSZ001>006-013>018-027>032-041>047-201300-
NORTHWEST KANSAS

CITY           SKY/WX    TMP DP  RH WIND       PRES   REMARKS
GOODLAND       CLEAR     23  20  88 CALM      29.72S
6HR MIN TEMP:  22; 6HR MAX TEMP:  35;

HAYS           CLOUDY    25  17  72 SE5       29.73R
HILL CITY      CLOUDY    28  24  85 CALM      29.73R
6HR MIN TEMP:  25; 6HR MAX TEMP:  31;

RUSSELL        CLOUDY    27  22  81 S9        29.72S
6HR MIN TEMP:  26; 6HR MAX TEMP:  41;

$$

KSZ061>065-074>080-084>089-201300-
SOUTHWEST KANSAS

CITY           SKY/WX    TMP DP  RH WIND       PRES   REMARKS
DODGE CITY     CLOUDY    35  16  45 SW10      29.71S WCI  27
6HR MIN TEMP:  31; 6HR MAX TEMP:  43;

GARDEN CITY    CLOUDY   N/A N/A N/A NW7       29.71R
GREAT BEND     CLOUDY    25  20  81 S7        29.74S
LIBERAL        CLOUDY    28  14  55 W3        29.73R
$$

KSZ066>073-081>083-090>101-201300-
SOUTHEAST KANSAS

CITY           SKY/WX    TMP DP  RH WIND       PRES   REMARKS
CHANUTE        CLOUDY    48  43  82 S15       29.88S
COFFEYVILLE    CLOUDY    49  43  80 S12       29.89S
6HR MIN TEMP:  43; 6HR MAX TEMP:  49;

HUTCHINSON     CLOUDY    47  45  93 S16       29.77S
6HR MIN TEMP:  38; 6HR MAX TEMP:  47;

MEDICINE LODGE   N/A     36  36 100 SE5       29.76R
NEWTON         CLOUDY    47  44  90 S23       29.79S
PARSONS        CLOUDY    48  43  82 S10       29.89S
6HR MIN TEMP:  42; 6HR MAX TEMP:  48;

WICHITA INTL   CLOUDY    49  46  90 S12       29.79S
6HR MIN TEMP:  40; 6HR MAX TEMP:  49;

WICHITA JABRA  CLOUDY    48  46  93 S17G24    29.79F
6HR MIN TEMP:  42; 6HR MAX TEMP:  48;

WICHITA MCCONL CLOUDY    48  45  88 S16       29.80S
WINFIELD       CLOUDY    49  47  93 S16       29.84R
6HR MIN TEMP:  44; 6HR MAX TEMP:  50;

$$

KSZ007>012-019>026-033>040-048>060-102>105-201300-
NORTHEAST KANSAS

CITY           SKY/WX    TMP DP  RH WIND       PRES   REMARKS
CONCORDIA      CLOUDY    26  23  88 E3        29.77R
6HR MIN TEMP:  26; 6HR MAX TEMP:  41;

EMPORIA        CLOUDY    45  41  86 S7        29.83S
6HR MIN TEMP:  40; 6HR MAX TEMP:  45;

LAWRENCE       CLOUDY    42  40  92 SE3       29.87S
6HR MIN TEMP:  39; 6HR MAX TEMP:  44;

MANHATTAN      CLOUDY    47  42  83 SW8       29.81S
6HR MIN TEMP:  37; 6HR MAX TEMP:  47;

OLATHE IND     CLOUDY    45  43  93 S12       29.88R
6HR MIN TEMP:  40; 6HR MAX TEMP:  46;

OLATHE EXE     CLOUDY    44  42  93 S9        29.87S
6HR MIN TEMP:  40; 6HR MAX TEMP:  44;

SALINA         CLOUDY    45  43  93 S9        29.78R
6HR MIN TEMP:  41; 6HR MAX TEMP:  45;

TOPEKA BILLARD CLOUDY    44  42  93 S3        29.85S
6HR MIN TEMP:  41; 6HR MAX TEMP:  44;

TOPEKA FORBES  CLOUDY    45  42  89 S8        29.84S
6HR MIN TEMP:  41; 6HR MAX TEMP:  45;

$$




USA.gov is the U.S. government's official web portal to all federal, state and local government web resources and services.